#timestamp,LO_Frequency,Hit 
1500264015.4,286047016.2,N
1500264035.2,286047018.8,N
1500264055.0,286047016.6,N
1500264055.9,286047016.6,N
1500264075.8,286047017.6,N
1500264095.6,286047018.6,N
1500264115.4,286047018.7,N
1500264135.3,286047016.2,N
1500264155.1,286047017.0,N
1500264156.0,286047017.0,N
1500264175.8,286047014.5,N
1500264195.7,286047011.7,N
1500264215.5,286047009.8,N
1500264235.3,286047013.8,N
1500264255.1,286047017.2,N
1500264275.9,286047018.5,N
1500264295.7,286047020.2,N
1500264315.5,286047020.0,N
1500264335.4,286047014.8,N
1500264355.2,286047012.9,N
1500264375.0,286047012.5,N
1500264375.9,286047012.5,N
1500264395.8,286047014.5,N
1500264415.6,286047015.3,N
1500264435.4,286047014.4,N
1500264455.3,286047017.0,N
1500264475.1,286047018.0,N
1500264476.0,286047018.0,N
1500264495.8,286047019.9,N
1500264515.7,286047017.6,N
1500264535.5,286047018.7,N
1500264555.3,286047018.8,N
1500264575.2,286047016.9,N
1500264595.9,286047019.5,N
1500264615.6,286047021.6,N
1500264635.4,286047016.3,N
1500264655.3,286047015.5,N
1500264675.1,286047018.5,N
1500264695.8,286047019.4,N
1500264715.7,286047017.5,N
1500264735.5,286047017.2,N
1500264755.3,286047017.8,N
1500264775.2,286047017.7,N
1500264795.9,286047020.8,N
1500264815.5,286047018.2,N
1500264835.3,286047020.1,N
1500264855.2,286047017.4,N
1500264875.9,286047017.0,N
1500264895.7,286047015.0,N
1500264915.6,286047012.6,N
1500264935.4,286047016.7,N
1500264955.2,286047019.7,N
1500264975.0,286047021.6,N
1500264976.0,286047021.6,N
1500264995.8,286047018.9,N
1500265015.6,286047017.6,N
1500265035.4,286047017.6,N
1500265055.3,286047017.9,N
1500265075.1,286047017.9,N
1500265095.8,286047021.3,N
1500265115.7,286047022.8,N
1500265135.5,286047023.1,N
1500265155.3,286047020.3,N
1500265175.2,286047017.0,N
1500265195.9,286047016.6,N
1500265215.7,286047016.3,N
1500265235.6,286047020.1,N
1500265255.4,286047021.4,N
1500265275.2,286047021.3,N
1500265295.1,286047020.9,N
1500265296.0,286047020.9,N
1500265315.8,286047019.2,N
1500265335.6,286047020.0,N
1500265355.4,286047019.0,N
1500265375.3,286047019.0,N
1500265395.1,286047017.9,N
1500265415.8,286047016.6,N
1500265435.7,286047019.5,N
1500265455.5,286047023.5,N
1500265475.3,286047022.2,N
1500265495.2,286047025.0,N
1500265515.9,286047025.2,N
1500265535.7,286047021.8,N
1500265555.6,286047017.6,N
1500265575.4,286047020.2,N
1500265595.2,286047019.1,N
1500265615.1,286047019.3,N
1500265616.0,286047019.3,N
1500265635.8,286047021.9,N
1500265655.6,286047017.9,N
1500265675.5,286047016.0,N
1500265695.3,286047014.8,N
1500265715.1,286047015.9,N
1500265735.9,286047014.4,N
1500265755.7,286047015.9,N
1500265775.5,286047017.8,N
1500265795.3,286047020.4,N
1500265815.2,286047021.4,N
1500265835.0,286047023.0,N
1500265835.9,286047023.0,N
1500265855.7,286047023.3,N
1500265875.6,286047024.8,N
1500265895.4,286047024.7,N
1500265915.2,286047022.4,N
1500265935.1,286047019.6,N
1500265955.9,286047021.4,N
1500265975.7,286047022.4,N
1500265995.5,286047020.2,N
1500266015.4,286047018.2,N
1500266035.2,286047018.4,N
1500266055.0,286047016.5,N
1500266055.9,286047016.5,N
1500266075.8,286047020.4,N
1500266095.6,286047021.6,N
1500266115.4,286047019.2,N
1500266135.3,286047019.6,N
1500266155.1,286047021.7,N
1500266175.8,286047023.4,N
1500266195.7,286047022.9,N
1500266215.5,286047022.7,N
1500266235.3,286047022.2,N
1500266255.2,286047024.9,N
1500266275.9,286047025.0,N
1500266295.7,286047024.5,N
1500266315.6,286047026.7,N
1500266335.4,286047024.7,N
1500266355.2,286047026.2,N
1500266375.0,286047025.9,N
1500266376.0,286047025.9,N
1500266395.8,286047028.1,N
1500266415.6,286047025.3,N
1500266435.4,286047025.5,N
1500266455.3,286047024.0,N
1500266475.1,286047023.9,N
1500266495.8,286047023.8,N
1500266515.7,286047023.8,N
1500266535.5,286047026.7,N
1500266555.3,286047026.3,N
1500266575.2,286047022.3,N
1500266595.9,286047024.9,N
1500266615.7,286047026.6,N
1500266635.6,286047025.8,N
1500266655.4,286047024.1,N
1500266675.2,286047026.0,N
1500266695.1,286047024.3,N
1500266696.0,286047024.3,N
1500266715.8,286047024.5,N
1500266735.6,286047025.5,N
1500266755.5,286047027.4,N
1500266775.3,286047027.7,N
1500266795.1,286047025.8,N
1500266815.8,286047027.8,N
1500266835.7,286047026.0,N
1500266855.5,286047025.7,N
1500266875.3,286047026.7,N
1500266895.3,286047026.2,N
1500266915.2,286047025.2,N
1500266935.9,286047024.4,N
1500266955.7,286047025.0,N
1500266975.6,286047024.5,N
1500266995.4,286047025.5,N
1500267015.2,286047025.5,N
1500267035.1,286047026.4,N
1500267036.0,286047026.4,N
1500267055.8,286047027.8,N
1500267075.6,286047027.7,N
1500267095.5,286047024.1,N
1500267115.3,286047024.2,N
1500267135.1,286047024.1,N
1500267155.9,286047026.0,N
1500267175.7,286047025.9,N
1500267195.5,286047025.5,N
1500267215.4,286047028.4,N
1500267235.2,286047024.4,N
1500267255.0,286047022.1,N
1500267255.9,286047022.1,N
1500267275.8,286047024.7,N
1500267295.6,286047024.5,N
1500267315.4,286047024.2,N
1500267335.2,286047024.3,N
1500267355.1,286047025.2,N
1500267356.0,286047025.2,N
1500267375.8,286047024.8,N
1500267395.6,286047025.0,N
1500267415.5,286047024.6,N
1500267435.3,286047026.8,N
1500267455.1,286047025.2,N
1500267475.9,286047019.9,N
1500267495.7,286047017.5,N
1500267515.5,286047019.1,N
1500267535.4,286047017.9,N
1500267555.2,286047014.4,N
1500267575.0,286047016.3,N
1500267575.9,286047016.3,N
1500267595.8,286047019.4,N
